Starlink 3621

operational
NORAD ID: 51769 Int'l Des: 2022-017 Owner: SPXS Country: US Constellation: starlink
LEOCIRCULAR

Über Starlink 3621

Beschreibung wird geladen...

Live-Position

3D-Globus wird geladen...

Nächste Überflüge

Höhenverlauf

Altitude vs Time

uPlot chart will show altitude changes over time

Zweizeiliger Elementsatz

1 51769U 22017B 25259.13712986 .00000252 00000-0 33901-4 0 9999
2 51769 53.2181 42.7175 0001210 88.1675 271.9456 15.08847105196251
Epoch: 16. Sept. 2025 • Age: 10 hours

Aktueller Status

Höhe 541.2 km
Geschwindigkeit 7.59 km/s
Subsatellitenpunkt -3.45°S, 149.52°W
Startdatum 25. Feb. 2022
Alter 3.5 years
Typ internet

Technische Details

Klassifizierung Payload
Masse 297.00 kg
Trockenmasse 275.00 kg
Gesamtmasse 297.00 kg
Länge 0.20 m
Durchmesser 2.80 m
Spannweite 9.00 m
Form Box + pan
Hersteller SPXS
Bus-Typ Starlink
Phasenstatus In Orbit
Besitzer/Staat SPXS/US

Große Konstellationen

Loading constellations...